Savanna, IA

2:25 PM CST on February 19, 2018 (GMT -0600)
Tri-Township

Weather History for KSFY - March, 2013

Change the Weather History Date:

Thursday, March 7, 2013

  Actual Average (KCWI) Record (KCWI)
Temperature  
Mean Temperature 26 °F -  
Max Temperature 33 °F 44 °F 74 °F (1987)
Min Temperature 18 °F 25 °F -8 °F (1960)
Degree Days  
Heating Degree Days 39    
Moisture  
Dew Point 21 °F    
Average Humidity 78    
Maximum Humidity 90    
Minimum Humidity 66    
Precipitation  
Precipitation 0.00 in - - ()
Sea Level Pressure  
Sea Level Pressure 30.38 in    
Wind  
Wind Speed 4 mph (SSW)    
Max Wind Speed 10 mph    
Max Gust Speed -    
Visibility 10 miles    
Events      
Averages and records for this station are not official NWS values.
T = Trace of Precipitation, MM = Missing Value Source: NWS Daily Summary

Daily Weather History Graph

Daily Weather History Graph

Search for Another Location

Airport or City:

Trip Planner

Search our weather history database for the weather conditions in past years. The results will help you decide how hot, cold, wet, or windy it might be!

Date:

Astronomy

Mar. 07, 2013 Rise Set
Actual Time 6:25 AM CST 5:58 PM CST
Civil Twilight 5:57 AM CST 6:25 PM CST
Nautical Twilight 5:25 AM CST 6:58 PM CST
Astronomical Twilight 4:52 AM CST 7:30 PM CST
Moon 3:28 AM CST (3/7) 1:42 PM CST (3/7)
Length of Visible Light 12h 28m
Length of Day
11h 32m
Waning Crescent, 20% of the Moon is Illuminated
Mar 7
Waning Crescent
Mar 11
New
Mar 19
First Quarter
Mar 27
Full
Apr 2
Last Quarter

Hourly Weather History & Observations

Time (CST) Temp. Windchill Dew Point Humidity Pressure Visibility Wind Dir Wind Speed Gust Speed Precip Events Conditions
12:15 AM 27.5 °F 21.1 °F 21.6 °F 78% 30.33 in 10.0 mi WNW 5.8 mph - N/A   Overcast
12:35 AM 27.5 °F 22.2 °F 21.7 °F 79% 30.34 in 10.0 mi West 4.6 mph - N/A   Overcast
12:55 AM 27.3 °F 19.9 °F 21.7 °F 80% 30.34 in 10.0 mi WNW 6.9 mph - N/A   Overcast
1:15 AM 27.1 °F 20.7 °F 21.7 °F 80% 30.35 in 10.0 mi West 5.8 mph - N/A   Overcast
1:35 AM 27.1 °F 20.7 °F 21.7 °F 80% 30.35 in 10.0 mi WNW 5.8 mph - N/A   Overcast
1:55 AM 27.1 °F 21.8 °F 21.7 °F 80% 30.35 in 10.0 mi NW 4.6 mph - N/A   Overcast
2:15 AM 27.0 °F 20.5 °F 21.7 °F 81% 30.36 in 10.0 mi WNW 5.8 mph - N/A   Overcast
2:35 AM 27.0 °F 21.6 °F 21.6 °F 80% 30.36 in 10.0 mi WNW 4.6 mph - N/A   Overcast
2:55 AM 26.6 °F - 21.7 °F 82% 30.36 in 10.0 mi Calm Calm - N/A   Overcast
3:15 AM 26.6 °F 22.6 °F 21.2 °F 80% 30.36 in 10.0 mi WNW 3.5 mph - N/A   Overcast
3:35 AM 26.6 °F - 21.2 °F 80% 30.35 in 10.0 mi Calm Calm - N/A   Overcast
3:55 AM 26.2 °F - 21.4 °F 82% 30.35 in 10.0 mi Calm Calm - N/A   Overcast
4:15 AM 25.7 °F - 21.2 °F 83% 30.34 in 10.0 mi Calm Calm - N/A   Overcast
4:35 AM 25.9 °F - 21.2 °F 82% 30.35 in 10.0 mi Calm Calm - N/A   Overcast
4:55 AM 26.2 °F - 21.2 °F 81% 30.36 in 10.0 mi Calm Calm - N/A   Overcast
5:15 AM 26.1 °F 20.5 °F 21.0 °F 81% 30.37 in 10.0 mi WNW 4.6 mph - N/A   Overcast
5:35 AM 25.5 °F - 21.0 °F 83% 30.37 in 10.0 mi Calm Calm - N/A   Overcast
5:55 AM 25.5 °F - 20.7 °F 82% 30.38 in 10.0 mi Calm Calm - N/A   Overcast
6:15 AM 25.3 °F 21.1 °F 20.3 °F 81% 30.38 in 10.0 mi WNW 3.5 mph - N/A   Overcast
6:35 AM 24.8 °F 20.5 °F 20.1 °F 82% 30.38 in 10.0 mi West 3.5 mph - N/A   Overcast
6:55 AM 24.8 °F - 20.3 °F 83% 30.39 in 10.0 mi Calm Calm - N/A   Overcast
7:15 AM 24.8 °F - 20.3 °F 83% 30.39 in 10.0 mi Calm Calm - N/A   Overcast
7:35 AM 25.0 °F 20.7 °F 20.3 °F 82% 30.40 in 10.0 mi WNW 3.5 mph - N/A   Overcast
7:55 AM 25.7 °F - 20.8 °F 82% 30.40 in 10.0 mi Calm Calm - N/A   Overcast
8:15 AM 26.6 °F 22.6 °F 21.2 °F 80% 30.41 in 10.0 mi North 3.5 mph - N/A   Overcast
8:35 AM 27.3 °F - 21.7 °F 80% 30.41 in 10.0 mi Calm Calm - N/A   Overcast
8:55 AM 27.3 °F - 21.2 °F 78% 30.41 in 10.0 mi Calm Calm - N/A   Overcast
9:15 AM 28.0 °F - 21.4 °F 76% 30.42 in 10.0 mi Calm Calm - N/A   Overcast
9:35 AM 29.7 °F - 21.7 °F 72% 30.42 in 10.0 mi Calm Calm - N/A   Overcast
9:55 AM 30.4 °F - 21.9 °F 71% 30.41 in 10.0 mi Calm Calm - N/A   Overcast
10:15 AM 30.6 °F 25.8 °F 21.7 °F 70% 30.41 in 10.0 mi SSW 4.6 mph - N/A   Overcast
10:35 AM 30.9 °F - 21.9 °F 69% 30.42 in 10.0 mi Calm Calm - N/A   Overcast
10:55 AM 31.3 °F 26.6 °F 22.3 °F 69% 30.41 in 10.0 mi SW 4.6 mph - N/A   Overcast
11:15 AM 31.6 °F - 22.3 °F 68% 30.41 in 10.0 mi Calm Calm - N/A   Overcast
11:35 AM 32.0 °F 27.5 °F 22.1 °F 67% 30.41 in 10.0 mi SSW 4.6 mph - N/A   Overcast
11:55 AM 32.0 °F 25.6 °F 22.6 °F 68% 30.40 in 10.0 mi South 6.9 mph - N/A   Overcast
12:15 PM 32.4 °F 26.9 °F 22.8 °F 68% 30.40 in 10.0 mi South 5.8 mph - N/A   Overcast
12:35 PM 32.4 °F 27.9 °F 23.0 °F 68% 30.40 in 10.0 mi SSW 4.6 mph - N/A   Overcast
12:55 PM 32.2 °F 25.8 °F 22.8 °F 68% 30.39 in 10.0 mi SSW 6.9 mph - N/A   Overcast
1:15 PM 32.4 °F 29.1 °F 22.8 °F 68% 30.39 in 10.0 mi SSW 3.5 mph - N/A   Overcast
1:35 PM 32.5 °F 29.3 °F 22.8 °F 67% 30.39 in 10.0 mi South 3.5 mph - N/A   Overcast
1:55 PM 32.2 °F 28.9 °F 22.6 °F 68% 30.38 in 10.0 mi SW 3.5 mph - N/A   Mostly Cloudy
2:15 PM 32.0 °F 26.4 °F 23.5 °F 71% 30.39 in 10.0 mi WSW 5.8 mph - N/A   Overcast
2:35 PM 32.0 °F 28.7 °F 23.0 °F 69% 30.39 in 10.0 mi SW 3.5 mph - N/A   Overcast
2:55 PM 32.9 °F - 22.6 °F 66% 30.39 in 10.0 mi Calm Calm - N/A   Mostly Cloudy
3:15 PM 33.3 °F 28.9 °F 22.8 °F 66% 30.38 in 10.0 mi SSE 4.6 mph - N/A   Scattered Clouds
3:35 PM 33.1 °F 30.0 °F 23.5 °F 68% 30.38 in 10.0 mi SE 3.5 mph - N/A   Clear
3:55 PM 33.4 °F - 23.5 °F 67% 30.37 in 10.0 mi Calm Calm - N/A   Clear
4:15 PM 32.2 °F - 23.0 °F 69% 30.37 in 10.0 mi Calm Calm - N/A   Scattered Clouds
4:35 PM 32.0 °F 26.4 °F 23.9 °F 72% 30.37 in 10.0 mi SE 5.8 mph - N/A   Scattered Clouds
4:55 PM 31.1 °F 25.4 °F 23.7 °F 74% 30.38 in 10.0 mi SE 5.8 mph - N/A   Clear
5:15 PM 29.8 °F 22.2 °F 23.0 °F 76% 30.38 in 10.0 mi SSE 8.1 mph - N/A   Clear
5:35 PM 28.0 °F 20.8 °F 21.9 °F 78% 30.39 in 10.0 mi SE 6.9 mph - N/A   Clear
5:55 PM 27.7 °F 22.4 °F 21.0 °F 76% 30.39 in 10.0 mi SE 4.6 mph - N/A   Clear
7:35 PM 23.4 °F 17.4 °F 19.8 °F 86% 30.39 in 10.0 mi ENE 4.6 mph - N/A   Clear
7:55 PM 24.1 °F 18.2 °F 19.9 °F 84% 30.39 in 10.0 mi ENE 4.6 mph - N/A   Clear
8:15 PM 21.9 °F 14.5 °F 18.3 °F 86% 30.39 in 10.0 mi ENE 5.8 mph - N/A   Clear
8:35 PM 21.2 °F 12.6 °F 18.1 °F 88% 30.39 in 10.0 mi ENE 6.9 mph - N/A   Clear
8:55 PM 21.2 °F 13.6 °F 17.8 °F 87% 30.39 in 10.0 mi ENE 5.8 mph - N/A   Clear
9:15 PM 21.0 °F 13.4 °F 17.8 °F 87% 30.40 in 10.0 mi East 5.8 mph - N/A   Clear
9:35 PM 19.8 °F 11.9 °F 16.5 °F 87% 30.40 in 10.0 mi ENE 5.8 mph - N/A   Clear
9:55 PM 19.9 °F 11.1 °F 17.1 °F 89% 30.40 in 10.0 mi ENE 6.9 mph - N/A   Clear
10:15 PM 20.1 °F 8.8 °F 17.6 °F 90% 30.38 in 10.0 mi East 10.4 mph - N/A   Clear
10:35 PM 20.3 °F 12.5 °F 17.1 °F 87% 30.39 in 10.0 mi East 5.8 mph - N/A   Clear
10:55 PM 20.1 °F - 16.9 °F 87% 30.39 in 10.0 mi Calm Calm - N/A   Clear
11:15 PM 20.8 °F - 17.8 °F 88% 30.41 in 10.0 mi Calm Calm - N/A   Clear
11:35 PM 19.9 °F - 16.9 °F 88% 30.42 in 10.0 mi Calm Calm - N/A   Clear
11:55 PM 18.0 °F 11.1 °F 15.4 °F 90% 30.41 in 10.0 mi NE 4.6 mph - N/A   Clear